sat.trackr.live / text

‹ back to catalog

ION SCV-021

NORAD 67483 · 2025-276ED

PAYLOAD ACTIVE UNKNOWN

§ Identity

Operator
Country
IT
Launch date
2025-11-28
Launch site
AFWTR
Launch vehicle
Mass (kg)
RCS (m²)

External: N2YO · Heavens-Above · Gunter

§ Orbital elements

Epoch: 2026-09-20T12:09:10.912320Z

Period
96.12 min
Inclination
97.5153°
Eccentricity
0.0010423
Mean motion
14.98063031 rev/d
Perigee alt
565.6 km
Apogee alt
580.1 km
Semi-major
6,951.0 km
B*
2.4520e-5
RAAN
330.4741°
Arg perigee
150.4749°
Mean anomaly
209.7065°
Rev number
3,687

§ Raw data

ION SCV-0211 67483U 25276ED  26263.50637630  .00000234  00000+0  24520-4 0  99942 67483  97.5153 330.4741 0010423 150.4749 209.7065 14.98063031 36870

JSON: /api/v1/satellites/67483 · /tle

For live sub-satellite position, see the globe view (requires WebGL).

§ Visibility from observer

Set your observer location to see the next 7 days of passes ≥ 10°. The values pass through the URL so the page stays shareable.

No JS? Fill the form by hand. The geolocation button needs JavaScript.